SWR1KA LKPR-LSZH

Flight info

Callsign SWR1KA
Flight time 0h 49m
Altitude 34000
Route BALTU DCT DONAD DCT OKG L984 KULOK Z715 ANELA N869 TEDGO/N0434F350 T724 RILAX
Aircraft A320/M-SDE2E3FGIRWXY/L

Departure

Time 2026-04-30 13:33
Airport Václav Havel Airport Prague (LKPR)

Arrival

Time 2026-04-30 14:22
Airport Zürich Airport (LSZH)
Time Latitude Longitude Altitude Speed Heading
2026-04-30 13:19 50.10594 14.26282 1171 ft 0 kts 35°
2026-04-30 13:26 50.10568 14.26254 1170 ft 4 kts 30°
2026-04-30 13:27 50.10531 14.26255 1170 ft 4 kts 304°
2026-04-30 13:28 50.10500 14.26325 1169 ft 0 kts 304°
2026-04-30 13:29 50.10507 14.26308 1172 ft 9 kts 304°
2026-04-30 13:30 50.10518 14.25961 1171 ft 11 kts 278°
2026-04-30 13:31 50.10630 14.25661 1172 ft 18 kts 299°
2026-04-30 13:31 50.10549 14.25143 1166 ft 10 kts 246°
2026-04-30 13:32 50.10507 14.25143 1168 ft 1 kts 126°
2026-04-30 13:32 50.10108 14.25967 1191 ft 116 kts 127°
2026-04-30 13:33 50.08881 14.28500 2122 ft 154 kts 124°
2026-04-30 13:33 50.07573 14.31209 3472 ft 161 kts 123°
2026-04-30 13:34 50.06885 14.32596 4130 ft 164 kts 131°
2026-04-30 13:34 50.03920 14.31632 5762 ft 193 kts 256°
2026-04-30 13:35 50.03887 14.29466 6085 ft 212 kts 278°
2026-04-30 13:35 50.04210 14.24353 6880 ft 262 kts 278°
2026-04-30 13:36 50.04571 14.18311 8107 ft 295 kts 277°
2026-04-30 13:36 50.04750 14.15106 9066 ft 300 kts 277°
2026-04-30 13:36 50.05107 14.08540 10737 ft 316 kts 277°
2026-04-30 13:37 50.05297 14.05000 11048 ft 340 kts 277°
2026-04-30 13:37 50.05696 13.97405 12389 ft 359 kts 277°
2026-04-30 13:38 50.06107 13.89523 13970 ft 370 kts 278°
2026-04-30 13:38 50.06317 13.85550 14678 ft 375 kts 278°
2026-04-30 13:38 50.06746 13.77374 16043 ft 384 kts 278°
2026-04-30 13:39 50.07174 13.68987 17444 ft 393 kts 278°
2026-04-30 13:39 50.07602 13.60424 18841 ft 401 kts 278°
2026-04-30 13:40 50.07818 13.56083 19460 ft 404 kts 279°
2026-04-30 13:40 50.08037 13.51710 20075 ft 407 kts 279°
2026-04-30 13:40 50.08255 13.47292 20686 ft 411 kts 279°
2026-04-30 13:40 50.08388 13.42819 21297 ft 419 kts 271°
2026-04-30 13:41 50.07837 13.38314 21863 ft 430 kts 256°
2026-04-30 13:41 50.06930 13.33854 22475 ft 434 kts 255°
2026-04-30 13:41 50.06000 13.29367 23056 ft 438 kts 255°
2026-04-30 13:41 50.05049 13.24835 23606 ft 442 kts 255°
2026-04-30 13:42 50.04082 13.20269 24125 ft 446 kts 255°
2026-04-30 13:42 50.03104 13.15663 24571 ft 450 kts 255°
2026-04-30 13:42 50.01131 13.06340 25433 ft 458 kts 256°
2026-04-30 13:43 50.00136 13.01618 25849 ft 461 kts 256°
2026-04-30 13:43 49.99135 12.96860 26258 ft 465 kts 256°
2026-04-30 13:43 49.98127 12.92075 26646 ft 468 kts 256°
2026-04-30 13:43 49.97104 12.87250 27040 ft 472 kts 255°
2026-04-30 13:44 49.96069 12.82399 27391 ft 475 kts 255°
2026-04-30 13:44 49.95022 12.77515 27809 ft 478 kts 255°
2026-04-30 13:44 49.93967 12.72603 28192 ft 481 kts 255°
2026-04-30 13:44 49.92906 12.67666 28564 ft 484 kts 255°
2026-04-30 13:45 49.90755 12.57690 29270 ft 491 kts 255°
2026-04-30 13:45 49.89662 12.52646 29609 ft 494 kts 255°
2026-04-30 13:45 49.88561 12.47578 29954 ft 497 kts 255°
2026-04-30 13:46 49.87451 12.42481 30274 ft 500 kts 255°
2026-04-30 13:46 49.86345 12.37418 30571 ft 503 kts 255°
2026-04-30 13:46 49.85221 12.32271 30829 ft 506 kts 255°
2026-04-30 13:46 49.84093 12.27103 31106 ft 507 kts 254°
2026-04-30 13:47 49.82962 12.21926 31393 ft 508 kts 254°
2026-04-30 13:47 49.81825 12.16738 31673 ft 509 kts 254°
2026-04-30 13:47 49.80679 12.11540 31945 ft 510 kts 254°
2026-04-30 13:47 49.79529 12.06352 32304 ft 509 kts 254°
2026-04-30 13:48 49.78377 12.01173 32674 ft 508 kts 254°
2026-04-30 13:48 49.77229 11.96020 33037 ft 506 kts 254°
2026-04-30 13:48 49.76079 11.90876 33392 ft 505 kts 254°
2026-04-30 13:48 49.74931 11.85747 33738 ft 505 kts 254°
2026-04-30 13:49 49.73783 11.80627 34052 ft 504 kts 254°
2026-04-30 13:49 49.72638 11.75523 34391 ft 501 kts 253°
2026-04-30 13:49 49.71499 11.70464 34448 ft 494 kts 253°
2026-04-30 13:50 49.69248 11.60515 34436 ft 489 kts 253°
2026-04-30 13:50 49.65884 11.45684 34408 ft 488 kts 253°
2026-04-30 13:51 49.63627 11.35804 34400 ft 488 kts 253°
2026-04-30 13:51 49.61360 11.25935 34382 ft 488 kts 253°
2026-04-30 13:52 49.59095 11.16091 34386 ft 487 kts 253°
2026-04-30 13:52 49.56839 11.06345 34392 ft 486 kts 253°
2026-04-30 13:53 49.54562 10.96554 34393 ft 485 kts 253°
2026-04-30 13:53 49.52239 10.86796 34392 ft 486 kts 249°
2026-04-30 13:54 49.48751 10.77881 34368 ft 489 kts 231°
2026-04-30 13:54 49.44074 10.70311 34392 ft 488 kts 226°
2026-04-30 13:55 49.39339 10.62851 34394 ft 487 kts 226°
2026-04-30 13:55 49.34678 10.55322 34395 ft 486 kts 227°
2026-04-30 13:56 49.29967 10.47867 34396 ft 486 kts 225°
2026-04-30 13:56 49.25171 10.40583 34407 ft 485 kts 224°
2026-04-30 13:57 49.20370 10.33327 34410 ft 485 kts 225°
2026-04-30 13:57 49.15624 10.25994 34369 ft 485 kts 225°
2026-04-30 13:58 49.09195 10.14126 34349 ft 483 kts 232°
2026-04-30 13:59 49.04983 10.06150 34358 ft 482 kts 231°
2026-04-30 13:59 49.00777 9.98264 34359 ft 482 kts 231°
2026-04-30 14:00 48.96553 9.90335 34358 ft 481 kts 231°
2026-04-30 14:00 48.90224 9.78481 34341 ft 481 kts 231°
2026-04-30 14:01 48.88110 9.74533 34164 ft 483 kts 231°
2026-04-30 14:01 48.85997 9.70588 33632 ft 481 kts 231°
2026-04-30 14:01 48.83884 9.66647 33112 ft 481 kts 231°
2026-04-30 14:01 48.81771 9.62711 32436 ft 480 kts 231°
2026-04-30 14:02 48.79659 9.58788 31729 ft 477 kts 230°
2026-04-30 14:02 48.77570 9.54916 31138 ft 472 kts 230°
2026-04-30 14:02 48.75500 9.51087 30565 ft 468 kts 230°
2026-04-30 14:02 48.73447 9.47291 29942 ft 464 kts 230°
2026-04-30 14:03 48.71404 9.43513 29302 ft 459 kts 230°
2026-04-30 14:03 48.69387 9.39790 28696 ft 455 kts 230°
2026-04-30 14:03 48.67412 9.36157 28146 ft 451 kts 230°
2026-04-30 14:03 48.65427 9.32513 27577 ft 447 kts 230°
2026-04-30 14:04 48.63460 9.28903 27012 ft 443 kts 230°
2026-04-30 14:04 48.61358 9.25545 26466 ft 438 kts 221°
2026-04-30 14:04 48.58976 9.22700 25929 ft 433 kts 215°
2026-04-30 14:04 48.56561 9.20009 25398 ft 430 kts 215°
2026-04-30 14:05 48.54163 9.17328 24880 ft 427 kts 215°
2026-04-30 14:05 48.51788 9.14672 24381 ft 423 kts 215°
2026-04-30 14:05 48.49429 9.12034 23879 ft 420 kts 215°
2026-04-30 14:05 48.47089 9.09423 23319 ft 417 kts 215°
2026-04-30 14:06 48.44767 9.06839 22833 ft 413 kts 215°
2026-04-30 14:06 48.40187 9.01751 21859 ft 405 kts 215°
2026-04-30 14:07 48.35689 8.96756 21011 ft 396 kts 215°
2026-04-30 14:07 48.33481 8.94314 20638 ft 390 kts 215°
2026-04-30 14:07 48.31309 8.91915 20264 ft 385 kts 215°
2026-04-30 14:08 48.27051 8.87187 19540 ft 375 kts 215°
2026-04-30 14:08 48.24966 8.84863 19176 ft 371 kts 215°
2026-04-30 14:08 48.20892 8.80329 18469 ft 364 kts 215°
2026-04-30 14:09 48.18865 8.78077 18063 ft 360 kts 214°
2026-04-30 14:09 48.16858 8.75850 17665 ft 357 kts 215°
2026-04-30 14:09 48.12892 8.71500 16885 ft 350 kts 214°
2026-04-30 14:10 48.10926 8.69368 16501 ft 348 kts 214°
2026-04-30 14:10 48.08972 8.67250 16127 ft 346 kts 214°
2026-04-30 14:10 48.07029 8.65143 15752 ft 344 kts 214°
2026-04-30 14:10 48.05098 8.63050 15380 ft 342 kts 214°
2026-04-30 14:11 48.03178 8.60966 15018 ft 340 kts 215°
2026-04-30 14:11 48.01275 8.58882 14660 ft 338 kts 215°
2026-04-30 14:11 47.99383 8.56812 14299 ft 336 kts 214°
2026-04-30 14:11 47.97513 8.54761 14090 ft 330 kts 215°
2026-04-30 14:12 47.95681 8.52742 13789 ft 326 kts 214°
2026-04-30 14:12 47.93869 8.50745 13485 ft 322 kts 214°
2026-04-30 14:12 47.92074 8.48770 13148 ft 319 kts 214°
2026-04-30 14:12 47.90896 8.47476 12920 ft 317 kts 215°
2026-04-30 14:13 47.88528 8.44868 12425 ft 315 kts 215°
2026-04-30 14:13 47.86683 8.43154 11990 ft 310 kts 205°
2026-04-30 14:13 47.84768 8.41725 11361 ft 305 kts 204°
2026-04-30 14:13 47.82868 8.40352 10732 ft 301 kts 204°
2026-04-30 14:14 47.81624 8.39475 10365 ft 297 kts 203°
2026-04-30 14:14 47.79767 8.38150 9678 ft 295 kts 204°
2026-04-30 14:14 47.77935 8.36838 9001 ft 291 kts 204°
2026-04-30 14:14 47.76296 8.35124 8361 ft 289 kts 226°
2026-04-30 14:15 47.75075 8.32781 7700 ft 286 kts 232°
2026-04-30 14:15 47.73975 8.30430 7429 ft 269 kts 233°
2026-04-30 14:15 47.72889 8.28298 7191 ft 247 kts 219°
2026-04-30 14:15 47.71459 8.27134 6852 ft 232 kts 189°
2026-04-30 14:16 47.69845 8.27019 6436 ft 234 kts 176°
2026-04-30 14:16 47.68225 8.27225 6079 ft 232 kts 162°
2026-04-30 14:16 47.66808 8.28147 5943 ft 217 kts 142°
2026-04-30 14:16 47.65689 8.29582 5686 ft 210 kts 134°
2026-04-30 14:17 47.64624 8.31065 5444 ft 209 kts 132°
2026-04-30 14:17 47.63576 8.32513 5317 ft 205 kts 132°
2026-04-30 14:17 47.62524 8.33965 5197 ft 209 kts 134°
2026-04-30 14:17 47.61467 8.35421 4973 ft 210 kts 133°
2026-04-30 14:18 47.60392 8.36900 4684 ft 210 kts 133°
2026-04-30 14:18 47.59331 8.38358 4409 ft 205 kts 133°
2026-04-30 14:18 47.57340 8.41091 3896 ft 189 kts 131°
2026-04-30 14:19 47.55459 8.43674 3398 ft 182 kts 130°
2026-04-30 14:19 47.54546 8.44926 3169 ft 173 kts 131°
2026-04-30 14:19 47.53706 8.46072 2967 ft 161 kts 130°
2026-04-30 14:20 47.52907 8.47167 2750 ft 151 kts 128°
2026-04-30 14:20 47.52166 8.48181 2543 ft 139 kts 128°
2026-04-30 14:20 47.50756 8.50116 2169 ft 136 kts 131°
2026-04-30 14:21 47.50075 8.51049 1961 ft 134 kts 129°
2026-04-30 14:21 47.49396 8.51980 1769 ft 132 kts 127°
2026-04-30 14:21 47.48047 8.53823 1426 ft 130 kts 129°
2026-04-30 14:22 47.47457 8.54645 1398 ft 96 kts 138°
2026-04-30 14:22 47.46803 8.55525 1398 ft 48 kts 137°
2026-04-30 14:22 47.46572 8.55841 1398 ft 32 kts 140°
2026-04-30 14:23 47.46150 8.55997 1406 ft 31 kts 184°
2026-04-30 14:23 47.45861 8.55913 1412 ft 17 kts 199°
2026-04-30 14:24 47.45644 8.55856 1408 ft 15 kts 186°
2026-04-30 14:24 47.45543 8.55841 1408 ft 14 kts 179°
2026-04-30 14:25 47.45460 8.56010 1408 ft 8 kts 184°
2026-04-30 14:25 47.45411 8.56001 1410 ft 0 kts 185°